Regional Weather Roundup
Issued by NWS Pendleton, OR

Home | Current Version | Previous Version | Text Only | Print | Product List | Glossary On
Versions: 1 2 3 4 5 6 7 8 9 10 11 12 13 14 15 16 17 18 19 20 21 22 23 24 25 26 27 28 29 30 31 32 33 34 35 36 37 38 39 40 41 42 43 44 45 46 47 48 49 50
759
ASUS46 KPDT 302025
RWRPDT
PENDLETON REGIONAL WEATHER ROUNDUP
NATIONAL WEATHER SERVICE PENDLETON OREGON
100 PM PDT SAT JUL 30 2016

NOTE: FAIR INDICATES FEW OR NO CLOUDS BELOW 12,000 FEET WITH NO
SIGNIFICANT WEATHER AND/OR OBSTRUCTIONS TO VISIBILITY.

# INDICATES UNOFFICIAL STATION AND DATA

WAZ520-302110-
EAST SLOPES OF WASHINGTON CASCADES

CITY            SKY/WX      TMP DP  RH  WIND    PRES   REMARKS
#CLE ELUM HS    N/A         72  51  48  SW15    29.81F
#CLE ELUM 2NW   N/A         71  49  46  SW9     N/A
#GLENWOOD       N/A         81  49  33  S8      29.75F
#NELSON 3SW     N/A         73  44  35  CALM    29.89S
#NILE           N/A         81  37  21  W6      29.00S
#RONALD 2NW     N/A         73  N/A N/A W3      29.96S
#TEANAWAY 4NE   N/A         77  55  47  NW2     N/A
#TROUT LAKE 1NE N/A         80  38  22  W9      29.76F
$$

WAZ521-302110-
SIMCOE HIGHLANDS

CITY            SKY/WX      TMP DP  RH  WIND    PRES   REMARKS
#CENTERVILLE 1SWN/A         80  39  23  W22     29.71F
#GOLDENDALE 1NE N/A         80  28  15  SW7     N/A
#GOLDENDALE 4W  N/A         80  49  34  W20     29.87F
#GOODNOE HILLS  N/A         86  40  20  W30     29.72F
#LYLE 6NE       N/A         77  42  29  SW13G24 29.77S
$$

WAZ026-302110-
KITTITAS VALLEY

CITY            SKY/WX      TMP DP  RH  WIND    PRES   REMARKS
ELLENSBURG AP   SUNNY       84  49  30  NW28G36 29.79F
#ELLENSBURG CWU N/A         82  48  31  N21     29.64S
#ELLENSBURG 3NE N/A         78  54  43  N10     29.80S
#ELLENSBURG     N/A         84  48  29  N5      N/A
#ELLENSBURG 1E  N/A         82  N/A N/A NW2     N/A
#KITTITAS 4N    N/A         82  51  34  W15     29.84S
#KITTITAS 3S    N/A         80  52  38  NW13    29.66F
#THORP 6N       N/A         73  50  44  NW22G35 29.72R
$$

WAZ027-302110-
YAKIMA VALLEY

CITY            SKY/WX      TMP DP  RH  WIND    PRES   REMARKS
SUNNYSIDE AP    SUNNY       88  54  31  N5      29.73F
YAKIMA AIRPORT  SUNNY       94  39  15  CALM    29.75F HX 90
YAKIMA-VAGABOND N/A         92  36  14  N12     29.74F HX 88
#DONALD 2NE     N/A         95  15   5  SE1     28.59F HX 90
#GRANDVIEW      N/A         89  52  28  N2      29.68F
#MABTON         N/A         88  58  36  N3      29.71F
#NACHES 2SW     N/A         88  50  27  W5      29.80S
#TERRACE HTS    N/A         95  49  21  N3      29.62F HX 92
#TOPPENISH      N/A         88  50  27  NE1     29.60F
#WEST VALLEY    N/A         89  45  22  E2      29.65S
#W YAKIMA       N/A         90  41  18  W2      29.66F HX 86
#WHITE SWAN 5E  N/A         89  59  37  NE3     29.67F
#WILEY CITY 3W  N/A         95  14   5  W1      29.72F HX 90
$$

WAZ028-302110-
LOWER COLUMBIA BASIN...WASHINGTON

CITY            SKY/WX      TMP DP  RH  WIND    PRES   REMARKS
HANFORD         SUNNY       97  38  13  SW12    29.70F HX 92
PASCO           SUNNY       93  47  21  SW12    29.72F HX 89
PROSSER AWOS    N/A         91  57  32  CALM    29.75F HX 90
RICHLAND AWOS   SUNNY       95  49  21  S10     29.71F HX 92
#BENTON CITY    N/A         90  53  28  S3      29.59F HX 88
#CONNELL 5N     N/A         90  55  31  W7      29.66F HX 88
#CONNELL 5NW    N/A         89  59  37  SW10    29.63F
#ELTOPIA 6NW    N/A         87  60  40  S6      28.71F
#KAHLOTUS       N/A         87  50  28  NW18G26 29.65F
#KENNEWICK 3S   N/A         89  54  31  N2      29.68F
#PATERSON       N/A         89  47  24  NW15G24 29.67F
#SAGEMOOR 2W    N/A         90  53  28  SW8     29.54S HX 88
#TOUCHET 2S     N/A         91  47  22  SW12    29.66F HX 88
#WEST PASCO     N/A         93  60  33  S5      29.67F HX 93
$$

WAZ029-302110-
FOOTHILLS OF THE BLUES...WASHINGTON

CITY            SKY/WX      TMP DP  RH  WIND    PRES   REMARKS
WALLA WALLA AP  SUNNY       91  42  18  SW17    29.77F HX 87
#CLYDE 6NW      N/A         88  52  29  W14G24  29.66F
#DAYTON SCHOOL  N/A         88  43  21  SW5     29.78F
#LOWDEN 2SE     N/A         91  43  19  W14     29.69F HX 87
#PLEASANT VIEW 1N/A         90  49  25  S9      29.69F HX 87
#PRESCOTT       N/A         90  54  30  SW1     29.66F HX 88
#WHITMAN COLLEGEN/A         89  46  23  SW13    29.73F
#WAITSBURG 5S   N/A         89  46  23  SW12    29.75F
#WAITSBURG 8N   N/A         90  31  12  SE15    29.73F HX 86
#WALLA WALLA U  N/A         91  46  21  SW9     29.68F HX 87
#WHITMAN MISSIONN/A         91  46  21  SW9     29.70F HX 87
$$

WAZ030-302110-
BLUE MOUNTAINS...WASHINGTON

CITY            SKY/WX      TMP DP  RH  WIND    PRES   REMARKS
#DIXIE 5SE      N/A         74  47  38  SW15    29.80F
$$

ORZ009-041-WAZ024-302110-
COLUMBIA RIVER GORGE

CITY            SKY/WX      TMP DP  RH  WIND    PRES   REMARKS
HOOD RIVER AP   SUNNY       75  43  32  NW20G30 29.90R
THE DALLES AP   SUNNY       84  34  17  NW23G35 29.81F
#ARLINGTON AIRPON/A         86  40  20  W22     29.72F
#LYLE           N/A         77  45  32  NW12G26 29.86F
#MARYHILL 2W    N/A         81  34  18  W13     N/A
#MOSIER 1S      N/A         76  30  18  NW15    29.85F
#MURDOCK        N/A         78  46  32  W29G40  29.78F
#RUFUS DOT      N/A         84  36  18  W25     N/A
#SMITHVILLE     N/A         80  41  25  W26G41  29.75F

$$

ORZ510-302110-
NORTH CENTRAL OREGON

CITY            SKY/WX      TMP DP  RH  WIND    PRES   REMARKS
#ANTELOPE       N/A         85  37  18  W7      29.57F
#CHENOWITH 1W   N/A         72  36  27  NW26    N/A
#COW CYN RST AREN/A         84  N/A N/A W10     N/A
#DUFUR 9E       N/A         75  37  25  NW22G30 29.81S
#GRASS VALLEY 1SN/A         83  31  15  W10     29.85S
#KENT DOT       N/A         85  42  22  N13     N/A
#MAUPIN SCHOOL  N/A         91  27  10  W8      29.84F HX 87
#SHANIKO 5WSW   N/A         82  33  17  N13     N/A
#SHANIKO 4NW    N/A         79  51  38  W12     29.97S
#TYGH VALLEY 2NEN/A         90  41  18  N1      29.73F HX 86
#WAPANITIA AIRPON/A         86  33  15  W10     29.75F
#WASCO DOT      N/A         82  46  28  W18     N/A
#WASCO 5NE      N/A         83  38  20  SW18G31 29.74S
$$

ORZ511-302110-
CENTRAL OREGON

CITY            SKY/WX      TMP DP  RH  WIND    PRES   REMARKS
BEND AIRPORT    SUNNY       86  36  17  VRB6    29.94F
MADRAS AIRPORT  SUNNY       91  27  10  NE3     29.92F HX 87
PRINEVILLE AP   SUNNY       86  36  17  VRB7    29.94F
REDMOND AIRPORT SUNNY       90  36  15  N8      29.92F HX 86
#ASHWOOD SCHOOL N/A         86  23  10  NW10    29.87F
#BEND 1SW       N/A         88  43  21  N2      N/A
#BEND-AWBREY    N/A         85  41  21  NE2     29.72F
#CULVER         N/A         86  41  21  NW1     29.67F
#CULVER 8W      N/A         87  24  10  E7      29.93F
#LAKE BILLY CHINN/A         87  N/A N/A N5      29.91F
#MADRAS 4S      N/A         85  27  12  N3      29.98F
#POWELL BUTTE 3EN/A         81  45  28  NW3     N/A
#POWELL BUTTE   N/A         88  46  23  SW5     29.83F
#PRINEVILLE 3N  N/A         86  45  24  SW3     29.80F
#WARM SPRINGS   N/A         90  39  17  CALM    29.82F HX 86

$$


ORZ509-302110-
EAST SLOPES OF OREGON CASCADES

CITY            SKY/WX      TMP DP  RH  WIND    PRES   REMARKS
SISTERS AWOS    N/A         82  43  25  W15G29  29.92F
#BLUE BOX PASS  N/A         71  N/A N/A W2      N/A
#CAMP SHERMAN   N/A         90  41  18  N3      29.84F HX 86
#LA PINE DOT    N/A         88  31  13  NW6     N/A
#LA PINE 4NW    N/A         82  47  29  SW6     29.78F
#LAVA BUTTE DOT N/A         87  46  24  CALM    N/A
#SISTERS AIRPOR N/A         83  52  34  N9      30.17S
#SISTERS ODOT   N/A         84  N/A N/A SW7     N/A
#SISTERS 3N     N/A         83  45  26  N8      29.94S
#SUNRIVER       N/A         88  38  17  SE3     29.88F
#TUMALO 3W      N/A         83  40  22  N7      29.62S
#WANOGA BUTTE D N/A         77  32  19  CALM    N/A

$$

ORZ044-302110-
LOWER COLUMBIA BASIN...OREGON

CITY            SKY/WX      TMP DP  RH  WIND    PRES   REMARKS
HERMISTON       SUNNY       92  33  12  W21G29  29.74F HX 88
#BOARDMAN 8SW   N/A         89  41  19  SW25    29.70F
#ECHO 8SW       N/A         91  33  13  W25     29.75F HX 87
#I-84 EX 198 DOTN/A         89  49  25  E25     N/A
#UMATILLA       N/A         88  47  24  W8      29.64F
$$

ORZ507-302110-
NORTHERN FOOTHILLS OF THE BLUES

CITY            SKY/WX      TMP DP  RH  WIND    PRES   REMARKS
PENDLETON AIRPT SUNNY       93  25   9  W18G25  29.79F HX 88
#ADAMS 3WNW     N/A         90  31  12  W12     29.66  HX 86
#ATHENA         N/A         86  36  17  W9      29.72S
#CAYUSE         N/A         88  36  16  W9      29.69F
#HELIX SCHOOL   N/A         86  31  14  W13     29.69F
#HELIX 3N       N/A         88  27  11  SW16G26 29.80F
#HOLDMAN 5SE    N/A         90  28  11  W15     29.78F HX 86
#HOLDMAN 6E     N/A         87  32  14  N8      29.50F
#M-F GROVE ELEM N/A         91  35  14  SW8     29.75F HX 87
#M-FREEWATER 5SEN/A         89  47  24  SW10    29.78F
#PENDLETON DNTN N/A         95  48  20  NW1     29.80S HX 91
#PDT AQUATIC CTRN/A         89  40  18  W13     29.56F
#PDT SUNRIDGE   N/A         93  31  11  NW12    29.78F HX 88
#PENDLETON 7NW  N/A         90  47  23  W12G26  31.70S HX 87
#PILOT ROCK 1S  N/A         92  38  15  W2      29.81F HX 88
#PILOT ROCK     N/A         93  30  11  W12     29.82F HX 88
#TUTUILLA       N/A         93  33  12  CALM    29.72F HX 89
#UMAPINE 2E     N/A         87  54  32  SW7     29.71F
#WESTON SCHOOL  N/A         86  33  15  N8      29.67F

$$

ORZ508-302110-
SOUTHERN FOOTHILLS OF THE BLUES

CITY            SKY/WX      TMP DP  RH  WIND    PRES   REMARKS
LEXINGTON       SUNNY       93  21   7  W24     29.85S HX 88
#CONDON 5W      N/A         82  22  11  NW12    29.88F
#HEPPNER EOC    N/A         89  30  12  W16G25  29.64S
#HEPPNER 4NE    N/A         86  29  13  NW16G25 29.69F
#LEXINGTON 2SE  N/A         91  37  15  W15G24  29.78F HX 87
#RUGGS 5NE      N/A         86  -12  2  W15G28  30.07S
#RUGGS 2SW      N/A         87  30  13  NW15G24 29.71S

$$

ORZ502-503-302110-
BLUE MOUNTAINS

CITY            SKY/WX      TMP DP  RH  WIND    PRES   REMARKS
MEACHAM         SUNNY       84  27  13  VRB5    29.94F
#BATTLE MTN DOT N/A         83  47  28  S3      N/A
#CUTSFORTH PARK N/A         83  34  17  N1      29.73F
#GREENHORN 9SW  N/A         85  40  20  N3      26.14F
#HARDMAN 10S    N/A         61  34  36  N5      30.22S
#HEPPNER 15SE   N/A         84  32  15  E5      25.50F
#LADD CYN SMT   N/A         86  49  28  NW12    N/A
#LADD CREEK ODOTN/A         89  52  28  N2      N/A
#LONG CREEK HS  N/A         80  38  22  CALM    N/A
#N POWDER DOT   N/A         86  55  35  N8      N/A
#PIKES PEAK     N/A         77  40  26  SW25G33 27.99S
#TOLLGATE       N/A         73  46  38  SW5     29.87F
#TROY SCHOOL    N/A         95  50  22  S10     29.49F HX 92
#UKIAH          N/A         86  43  22  NW7     29.62F
#WESTON 4E      N/A         82  39  22  SW9     29.65F
$$

ORZ505-302110-
JOHN DAY BASIN

CITY            SKY/WX      TMP DP  RH  WIND    PRES   REMARKS
JOHN DAY        SUNNY       89  29  12  W12     29.94F
#DAYVILLE SCHOOLN/A         90  33  13  VRB3    29.84F HX 86
#MITCHELL       N/A         87  49  27  CALM    30.08F
#MITCHELL 8NW   N/A         86  27  12  SW7     29.89F
#MONUMENT HS    N/A         90  38  16  NW5     29.70F HX 86
#MT. VERNON 5SE N/A         84  36  18  W7      29.91F
#SPRAY SCHOOL   N/A         92  N/A N/A CALM    N/A
$$

ORZ506-302110-
OCHOCO AND JOHN DAY HIGHLANDS

CITY            SKY/WX      TMP DP  RH  WIND    PRES   REMARKS
#BUCK CREEK DOT N/A         85  30  14  W12     N/A
#HORSE RIDGE DO N/A         82  30  15  N8      N/A
#KEYES SMT DOT  N/A         80  39  23  SW25G33 N/A
#PAULINA SCHOOL N/A         87  29  12  W3      N/A
#PINE MTN OBS   N/A         72  37  28  N1      N/A
#PRAIRIE CITY   N/A         90  34  14  W3      30.07F HX 86
#SENECA         N/A         83  N/A N/A N2      N/A
#SENECA 9NW     N/A         85  34  16  E1      29.68F
$$

ORZ049-302110-
GRANDE RONDE VALLEY

CITY            SKY/WX      TMP DP  RH  WIND    PRES   REMARKS
LA GRANDE       SUNNY       93  43  18  CALM    29.85F HX 89
#COVE           N/A         87  51  29  NW1     29.91F
#COVE SCHOOL    N/A         90  46  22  CALM    29.90F HX 87
#COVE 6NW       N/A         86  46  25  NW2     29.73F
#ELGIN 3N       N/A         88  41  19  SW6     29.84F
#ELGIN 1E       N/A         89  46  23  CALM    N/A
#IMBLER SCHOOL  N/A         85  46  26  W9      29.83F
#ISLAND CITY 4N N/A         75  54  48  NW1     29.99F
#LADD CYN DOT   N/A         89  55  32  NW8     N/A
#UNION 1S       N/A         88  44  22  N8      29.58F
$$

ORZ050-302110-
WALLOWA COUNTY

CITY            SKY/WX      TMP DP  RH  WIND    PRES   REMARKS
JOSEPH AIRPORT  SUNNY       86  36  17  NW8     N/A
#ENTERPRISE AP  N/A         49  29  46  CALM    29.85F
#ENTERPRISE HS  N/A         86  44  23  NW7     29.90F
#IMNAHA SCHOOL  N/A         96  41  15  N6      29.74F HX 92
#IMNAHA 10S     N/A         94  47  20  SW2     29.81F HX 90
#JOSEPH 3N      N/A         83  41  23  N7      29.93F
#JOSEPH 3W      N/A         83  42  24  E5      29.81F
#LOSTINE        N/A         88  44  22  NW1     29.47S
#LOSTINE 3SE    N/A         86  38  18  N15     29.85F
#MT HOWARD 8000 N/A         66  45  47  CALM    30.21S
#PROMISE 1S     N/A         81  47  30  E10     29.79F
#WALLOWA SCHOOL N/A         87  42  21  N3      29.83F



$$



USA.gov is the U.S. government's official web portal to all federal, state and local government web resources and services.